When you browse on this site, cookies collect data to enhance your experience and personalize the content and advertising you see.
Visit our Privacy Policy to learn more. By continuing to use the site, you agree to this use of cookies and data.
  • In Spain
  • List of Countries
  • For 7 days
  • Water Temperature
  • Weather Map
  • Weather Widgets
  • user-avatar
    Login

    Hourly Weather Jarim

    Today, 15 November, Friday

    Time Temperature Precipitation Wind Pressure Humidity
    00:00 +10°C° 0 mm 2 mps 553 mmHg 49%
    01:00 +10°C° 0 mm 2 mps 552 mmHg 49%
    02:00 +10°C° 0 mm 2 mps 552 mmHg 49%
    03:00 +9°C° 0 mm 2 mps 551 mmHg 49%
    04:00 +9°C° 0 mm 2 mps 551 mmHg 50%
    05:00 +8°C° 0 mm 2 mps 551 mmHg 50%
    06:00 +8°C° 0 mm 2 mps 551 mmHg 51%
    07:00 +10°C° 0 mm 2 mps 552 mmHg 46%
    08:00 +12°C° 0 mm 2 mps 554 mmHg 41%
    09:00 +14°C° 0 mm 1 mps 555 mmHg 36%
    10:00 +15°C° 0 mm 1 mps 555 mmHg 34%
    11:00 +16°C° 0 mm 2 mps 555 mmHg 32%
    12:00 +18°C° 0 mm 2 mps 555 mmHg 30%
    13:00 +18°C° 0 mm 2 mps 555 mmHg 29%
    14:00 +18°C° 0 mm 3 mps 554 mmHg 29%
    15:00 +19°C° 0 mm 3 mps 554 mmHg 29%
    16:00 +18°C° 0 mm 3 mps 554 mmHg 36%
    17:00 +16°C° 0 mm 2 mps 553 mmHg 42%
    18:00 +15°C° 0 mm 2 mps 553 mmHg 49%
    19:00 +14°C° 0.1 mm 2 mps 553 mmHg 50%
    20:00 +14°C° 0.1 mm 2 mps 553 mmHg 52%
    21:00 +13°C° 0.1 mm 2 mps 553 mmHg 53%
    22:00 +12°C° 0 mm 1 mps 552 mmHg 52%
    23:00 +12°C° 0 mm 1 mps 552 mmHg 51%

    Tomorrow, 16 November, Saturday

    Time Temperature Precipitation Wind Pressure Humidity
    00:00 +12°C° 0 mm 1 mps 552 mmHg 50%
    01:00 +11°C° 0 mm 1 mps 551 mmHg 50%
    02:00 +11°C° 0 mm 1 mps 551 mmHg 50%
    03:00 +10°C° 0 mm 1 mps 550 mmHg 50%
    04:00 +10°C° 0 mm 1 mps 550 mmHg 51%
    05:00 +10°C° 0 mm 1 mps 550 mmHg 51%
    06:00 +9°C° 0 mm 1 mps 550 mmHg 51%
    07:00 +11°C° 0 mm 1 mps 551 mmHg 48%
    08:00 +13°C° 0 mm 1 mps 552 mmHg 44%
    09:00 +14°C° 0 mm 1 mps 553 mmHg 40%
    10:00 +15°C° 0 mm 1 mps 553 mmHg 37%
    11:00 +17°C° 0 mm 2 mps 554 mmHg 34%
    12:00 +18°C° 0 mm 2 mps 554 mmHg 30%
    13:00 +18°C° 0 mm 3 mps 553 mmHg 32%
    14:00 +18°C° 0 mm 3 mps 553 mmHg 34%
    15:00 +18°C° 0 mm 4 mps 553 mmHg 36%
    16:00 +17°C° 0.1 mm 3 mps 552 mmHg 46%
    17:00 +14°C° 0.1 mm 3 mps 552 mmHg 56%
    18:00 +13°C° 0.1 mm 3 mps 551 mmHg 66%
    19:00 +14°C° 0.2 mm 2 mps 552 mmHg 70%
    20:00 +13°C° 0.2 mm 2 mps 552 mmHg 74%
    21:00 +13°C° 0.2 mm 1 mps 552 mmHg 78%
    22:00 +12°C° 0.2 mm 1 mps 552 mmHg 77%
    23:00 +12°C° 0.2 mm 1 mps 552 mmHg 76%

    Day after tomorrow, 17 November, Sunday

    Time Temperature Precipitation Wind Pressure Humidity
    00:00 +12°C° 0.2 mm 1 mps 551 mmHg 74%
    01:00 +12°C° 0.1 mm 1 mps 551 mmHg 76%
    02:00 +12°C° 0.1 mm 1 mps 551 mmHg 77%
    03:00 +10°C° 0.1 mm 0 mps 550 mmHg 79%
    04:00 +11°C° 0 mm 1 mps 550 mmHg 79%
    05:00 +11°C° 0 mm 1 mps 550 mmHg 80%
    06:00 +10°C° 0 mm 1 mps 550 mmHg 81%
    07:00 +12°C° 0 mm 1 mps 551 mmHg 74%
    08:00 +13°C° 0 mm 1 mps 552 mmHg 66%
    09:00 +14°C° 0 mm 1 mps 553 mmHg 58%
    10:00 +15°C° 0 mm 1 mps 553 mmHg 51%
    11:00 +17°C° 0 mm 2 mps 553 mmHg 43%
    12:00 +18°C° 0 mm 2 mps 554 mmHg 35%
    13:00 +18°C° 0 mm 3 mps 553 mmHg 36%
    14:00 +18°C° 0 mm 3 mps 553 mmHg 36%
    15:00 +18°C° 0 mm 4 mps 553 mmHg 37%
    16:00 +17°C° 0 mm 3 mps 553 mmHg 43%
    17:00 +16°C° 0 mm 3 mps 552 mmHg 49%
    18:00 +14°C° 0 mm 3 mps 552 mmHg 55%
    19:00 +14°C° 0 mm 2 mps 552 mmHg 60%
    20:00 +14°C° 0 mm 2 mps 552 mmHg 64%
    21:00 +13°C° 0 mm 1 mps 553 mmHg 69%
    22:00 +13°C° 0 mm 1 mps 552 mmHg 72%
    23:00 +13°C° 0 mm 1 mps 552 mmHg 75%

    18 November, Monday

    Time Temperature Precipitation Wind Pressure Humidity
    00:00 +11°C° 0 mm 0 mps 552 mmHg 78%
    01:00 +11°C° 0 mm 0 mps 551 mmHg 79%
    02:00 +11°C° 0 mm 0 mps 551 mmHg 79%
    03:00 +10°C° 0 mm 0 mps 550 mmHg 80%
    04:00 +10°C° 0 mm 0 mps 551 mmHg 80%
    05:00 +10°C° 0 mm 0 mps 551 mmHg 79%
    06:00 +9°C° 0 mm 0 mps 551 mmHg 79%
    07:00 +11°C° 0 mm 0 mps 552 mmHg 68%
    08:00 +14°C° 0 mm 1 mps 553 mmHg 57%
    09:00 +16°C° 0 mm 1 mps 554 mmHg 46%
    10:00 +17°C° 0 mm 2 mps 555 mmHg 41%
    11:00 +18°C° 0 mm 2 mps 555 mmHg 37%
    12:00 +19°C° 0 mm 3 mps 555 mmHg 32%
    13:00 +19°C° 0 mm 3 mps 555 mmHg 34%
    14:00 +19°C° 0 mm 4 mps 554 mmHg 36%
    15:00 +19°C° 0 mm 5 mps 554 mmHg 39%
    16:00 +18°C° 0 mm 4 mps 554 mmHg 44%
    17:00 +16°C° 0 mm 3 mps 553 mmHg 50%
    18:00 +15°C° 0 mm 2 mps 553 mmHg 56%
    19:00 +15°C° 0 mm 2 mps 553 mmHg 59%
    20:00 +14°C° 0 mm 1 mps 553 mmHg 61%
    21:00 +14°C° 0 mm 1 mps 553 mmHg 64%
    22:00 +14°C° 0 mm 1 mps 553 mmHg 65%
    23:00 +13°C° 0 mm 1 mps 553 mmHg 67%

    19 November, Tuesday

    Time Temperature Precipitation Wind Pressure Humidity
    00:00 +13°C° 0 mm 1 mps 552 mmHg 68%
    01:00 +12°C° 0 mm 0 mps 552 mmHg 68%
    02:00 +11°C° 0 mm 0 mps 551 mmHg 69%
    03:00 +11°C° 0 mm 0 mps 551 mmHg 69%
    04:00 +10°C° 0 mm 0 mps 551 mmHg 69%
    05:00 +10°C° 0 mm 0 mps 551 mmHg 68%
    06:00 +10°C° 0 mm 0 mps 551 mmHg 68%
    07:00 +13°C° 0 mm 1 mps 552 mmHg 58%
    08:00 +14°C° 0 mm 1 mps 553 mmHg 48%
    09:00 +16°C° 0 mm 1 mps 555 mmHg 38%
    10:00 +17°C° 0 mm 2 mps 555 mmHg 35%
    11:00 +18°C° 0 mm 3 mps 555 mmHg 33%
    12:00 +19°C° 0 mm 3 mps 555 mmHg 30%
    13:00 +19°C° 0 mm 4 mps 554 mmHg 32%
    14:00 +19°C° 0 mm 4 mps 554 mmHg 33%
    15:00 +19°C° 0 mm 5 mps 554 mmHg 35%
    16:00 +18°C° 0 mm 4 mps 553 mmHg 40%
    17:00 +17°C° 0 mm 3 mps 553 mmHg 46%
    18:00 +16°C° 0 mm 3 mps 552 mmHg 51%
    19:00 +15°C° 0 mm 2 mps 552 mmHg 55%
    20:00 +15°C° 0 mm 1 mps 552 mmHg 58%
    21:00 +14°C° 0 mm 1 mps 552 mmHg 61%
    22:00 +13°C° 0 mm 0 mps 552 mmHg 64%
    23:00 +12°C° 0 mm 0 mps 552 mmHg 68%

    20 November, Wednesday

    Time Temperature Precipitation Wind Pressure Humidity
    00:00 +12°C° 0 mm 0 mps 551 mmHg 71%
    01:00 +11°C° 0 mm 0 mps 551 mmHg 73%
    02:00 +11°C° 0 mm 0 mps 550 mmHg 74%
    03:00 +11°C° 0 mm 0 mps 550 mmHg 76%
    04:00 +10°C° 0 mm 0 mps 550 mmHg 76%
    05:00 +10°C° 0 mm 0 mps 550 mmHg 77%
    06:00 +9°C° 0 mm 0 mps 550 mmHg 78%
    07:00 +12°C° 0 mm 1 mps 551 mmHg 66%
    08:00 +14°C° 0 mm 1 mps 552 mmHg 54%
    09:00 +16°C° 0 mm 1 mps 553 mmHg 43%
    10:00 +17°C° 0 mm 2 mps 554 mmHg 38%
    11:00 +18°C° 0 mm 3 mps 554 mmHg 34%
    12:00 +19°C° 0 mm 4 mps 554 mmHg 30%
    13:00 +19°C° 0 mm 4 mps 554 mmHg 32%
    14:00 +19°C° 0 mm 4 mps 553 mmHg 34%
    15:00 +19°C° 0 mm 5 mps 553 mmHg 37%
    16:00 +18°C° 0 mm 4 mps 552 mmHg 44%
    17:00 +17°C° 0 mm 3 mps 552 mmHg 51%
    18:00 +16°C° 0 mm 2 mps 552 mmHg 58%
    19:00 +15°C° 0 mm 2 mps 552 mmHg 62%
    20:00 +15°C° 0 mm 1 mps 552 mmHg 67%
    21:00 +14°C° 0 mm 1 mps 552 mmHg 72%
    22:00 +13°C° 0.1 mm 0 mps 552 mmHg 73%
    23:00 +13°C° 0.1 mm 0 mps 551 mmHg 73%
    Show more